,,,Stat1,,Stat2,,Stat3,,Stat4,,Wind1,,Wind1,,
time,status,wib,PR1M_SUM,status,RH1M_AVG,status,SR1M_AVG,status,TA1M_AVG,status,W1dAve1m,status,W1sAve1m,kom-u,kom-v
1999-09-02, 00:00:01,VALID,0,VALID,99.0046,VALID,-0.0679233,VALID,20.8694,VALID,228,VALID,0.804287,0.597701722,0.538173048
1999-09-02, 00:01:01,VALID,0,VALID,98.997,VALID,0,VALID,20.8587,VALID,224,VALID,0.666066,0.462688322,0.479127783
1999-09-02, 00:02:00,VALID,0,VALID,99.016,VALID,0.0849042,VALID,20.8582,VALID,229,VALID,0.643029,0.485300147,0.421864981
1999-09-02, 00:03:00,VALID,0,VALID,98.9855,VALID,0.0679233,VALID,20.8549,VALID,234,VALID,0.816506,0.66056723,0.479930185
1999-09-02, 00:04:00,VALID,0,VALID,98.9741,VALID,0.0679233,VALID,20.852,VALID,236,VALID,0.911675,0.755812829,0.50980219
1999-09-02, 00:05:00,VALID,0,VALID,98.9639,VALID,0.0339617,VALID,20.8285,VALID,238,VALID,0.654046,0.554662465,0.346591575
1999-09-02, 00:06:00,VALID,0,VALID,98.9779,VALID,0.0679233,VALID,20.8291,VALID,238,VALID,0.696314,0.590507762,0.368990203
1999-09-02, 00:07:00,VALID,0,VALID,98.9766,VALID,0.0339617,VALID,20.8256,VALID,237,VALID,0.704078,0.590489496,0.383468362
1999-09-02, 00:08:00,VALID,0,VALID,98.9677,VALID,0.0509425,VALID,20.8194,VALID,235,VALID,0.574219,0.470372668,0.329358488
1999-09-02, 00:09:00,VALID,0,VALID,98.9677,VALID,0.0509425,VALID,20.8291,VALID,230,VALID,0.950802,0.728356589,0.611163745
1999-09-02, 00:10:00,VALID,0,VALID,98.9677,VALID,0.0849042,VALID,20.8323,VALID,231,VALID,0.785156,0.610180815,0.494114681
1999-09-02, 00:11:00,VALID,0,VALID,98.9855,VALID,0.0509425,VALID,20.8358,VALID,227,VALID,0.439967,0.321771494,0.300056772
1999-09-02, 00:12:01,VALID,0,VALID,98.9779,VALID,0.0509425,VALID,20.842,VALID,231,VALID,0.402027,0.312433659,0.253003789
1999-09-02, 00:13:00,VALID,0,VALID,98.9499,VALID,0.0509425,VALID,20.8417,VALID,235,VALID,0.543069,0.444856082,0.311491582
1999-09-02, 00:14:00,VALID,0,VALID,98.9219,VALID,0.0339617,VALID,20.8487,VALID,259,VALID,0.487542,0.47858448,0.093027399
1999-09-02, 00:15:00,VALID,0,VALID,98.9016,VALID,0.0509425,VALID,20.8482,VALID,247,VALID,0.298931,0.275167436,0.116801647
1999-09-02, 00:16:00,VALID,0,VALID,98.8876,VALID,0,VALID,20.8589,VALID,244,VALID,0.50699,0.455679594,0.222249788
1999-09-02, 00:17:00,VALID,0,VALID,98.852,VALID,-0.0339617,VALID,20.8727,VALID,236,VALID,0.593117,0.491716278,0.331666817
1999-09-02, 00:18:00,VALID,0,VALID,98.8533,VALID,-0.101885,VALID,20.8891,VALID,220,VALID,0.200921,0.129149529,0.153914416
1999-09-02, 00:19:00,VALID,0,VALID,98.8329,VALID,-0.101885,VALID,20.8891,VALID,237,VALID,0.451858,0.378960005,0.246099505
1999-09-02, 00:20:00,VALID,0,VALID,98.7973,VALID,-0.0509425,VALID,20.8923,VALID,232,VALID,0.613487,0.483434353,0.377700312
1999-09-02, 00:21:00,VALID,0,VALID,98.7935,VALID,-0.0849042,VALID,20.8921,VALID,239,VALID,0.515419,0.441800313,0.26546041
1999-09-02, 00:22:00,VALID,0,VALID,98.8304,VALID,-0.0339617,VALID,20.8985,VALID,251,VALID,0.691512,0.653837441,0.225134286
1999-09-02, 00:23:00,VALID,0,VALID,98.7604,VALID,-0.0509425,VALID,20.8826,VALID,185,VALID,0.914263,0.079683271,0.910783953
1999-09-02, 00:24:00,VALID,0,VALID,98.7846,VALID,-0.0339617,VALID,20.8659,VALID,130,VALID,0.851563,-0.652335104,0.547374145
1999-09-02, 00:25:00,VALID,0,VALID,98.796,VALID,-0.0339617,VALID,20.86,VALID,130,VALID,0.708882,-0.543035117,0.455660566
1999-09-02, 00:26:00,VALID,0,VALID,98.8266,VALID,-0.0339617,VALID,20.863,VALID,125,VALID,0.479646,-0.392903001,0.275113643
1999-09-02, 00:27:00,VALID,0,VALID,98.8342,VALID,-0.0849042,VALID,20.863,VALID,134,VALID,0.705448,-0.507456823,0.490045358
1999-09-02, 00:28:00,VALID,0,VALID,98.8151,VALID,-0.0339617,VALID,20.8565,VALID,136,VALID,0.784255,-0.5447893,0.564145835
1999-09-02, 00:29:00,VALID,0,VALID,98.8329,VALID,-0.0339617,VALID,20.85,VALID,136,VALID,0.657306,-0.456603115,0.472826367
1999-09-02, 00:30:00,VALID,0,VALID,98.8444,VALID,-0.0509425,VALID,20.86,VALID,121,VALID,0.478413,-0.41007998,0.246400911
1999-09-02, 00:31:00,VALID,0,VALID,98.8571,VALID,-0.0509425,VALID,20.8503,VALID,108,VALID,0.679482,-0.646225784,0.209971485
1999-09-02, 00:32:00,VALID,0,VALID,98.8787,VALID,-0.0679233,VALID,20.8565,VALID,121,VALID,0.54962,-0.471116292,0.283075227
1999-09-02, 00:33:00,VALID,0,VALID,98.8711,VALID,-0.0339617,VALID,20.8665,VALID,104,VALID,0.564904,-0.548123937,0.136662647
1999-09-02, 00:34:00,VALID,0,VALID,98.8584,VALID,-0.0339617,VALID,20.8465,VALID,147,VALID,0.4394,-0.239314392,0.368511848
1999-09-02, 00:35:00,VALID,0,VALID,98.8545,VALID,-0.101885,VALID,20.8538,VALID,137,VALID,0.266447,-0.181716417,0.194867
1999-09-02, 00:36:00,VALID,0,VALID,98.8647,VALID,-0.0849042,VALID,20.8374,VALID,138,VALID,0.123766,-0.082815619,0.091976062
1999-09-02, 00:37:00,VALID,0,VALID,98.8749,VALID,-0.0339617,VALID,20.8406,VALID,138,VALID,0,0,0
1999-09-02, 00:38:00,VALID,0,VALID,98.8584,VALID,-0.0679233,VALID,20.8204,VALID,138,VALID,0,0,0
1999-09-02, 00:39:00,VALID,0,VALID,98.8622,VALID,-0.0679233,VALID,20.8209,VALID,125,VALID,0.0515203,-0.042202959,0.02955083
1999-09-02, 00:40:00,VALID,0,VALID,98.8901,VALID,-0.0509425,VALID,20.8274,VALID,141,VALID,0,0,0
1999-09-02, 00:41:00,VALID,0,VALID,98.8863,VALID,-0.0679233,VALID,20.8239,VALID,142,VALID,0.0219984,-0.013543567,0.017334976
1999-09-02, 00:42:00,VALID,0,VALID,98.8952,VALID,-0.0679233,VALID,20.8242,VALID,141,VALID,0,0,0
1999-09-02, 00:43:00,VALID,0,VALID,98.9041,VALID,-0.0169808,VALID,20.8403,VALID,141,VALID,0,0,0
1999-09-02, 00:44:01,VALID,0,VALID,98.8762,VALID,-0.0509425,VALID,20.8306,VALID,141,VALID,0,0,0
1999-09-02, 00:45:00,VALID,0,VALID,98.8749,VALID,-0.0849042,VALID,20.8304,VALID,141,VALID,0,0,0
1999-09-02, 00:46:00,VALID,0,VALID,98.824,VALID,-0.0509425,VALID,20.8266,VALID,141,VALID,0,0,0
1999-09-02, 00:47:00,VALID,0,VALID,98.8049,VALID,0.0509425,VALID,20.8161,VALID,141,VALID,0,0,0
1999-09-02, 00:48:00,VALID,0,VALID,98.7948,VALID,0.0679233,VALID,20.8129,VALID,141,VALID,0,0,0
1999-09-02, 00:49:00,VALID,0,VALID,98.7795,VALID,0.0169808,VALID,20.8129,VALID,141,VALID,0,0,0
1999-09-02, 00:50:00,VALID,0,VALID,98.7604,VALID,0.0339617,VALID,20.8067,VALID,141,VALID,0,0,0
1999-09-02, 00:51:00,VALID,0,VALID,98.7782,VALID,0.0679233,VALID,20.8064,VALID,147,VALID,0,0,0
1999-09-02, 00:52:00,VALID,0,VALID,98.7503,VALID,0.0169808,VALID,20.7897,VALID,178,VALID,0,0,0
1999-09-02, 00:53:00,VALID,0,VALID,98.7325,VALID,0.0679233,VALID,20.7868,VALID,193,VALID,0,0,0
1999-09-02, 00:54:01,VALID,0,VALID,98.6905,VALID,0.0339617,VALID,20.7738,VALID,193,VALID,0,0,0
1999-09-02, 00:55:00,VALID,0,VALID,98.6206,VALID,0.0339617,VALID,20.7482,VALID,178,VALID,0.139391,-0.004864676,0.139306087
1999-09-02, 00:56:00,VALID,0,VALID,98.6002,VALID,0.0339617,VALID,20.7256,VALID,159,VALID,0.151727,-0.054374094,0.141649357
1999-09-02, 00:57:00,VALID,0,VALID,98.5595,VALID,0,VALID,20.7161,VALID,129,VALID,0.472762,-0.367405079,0.297518767
1999-09-02, 00:58:00,VALID,0,VALID,98.5366,VALID,0.0509425,VALID,20.6835,VALID,128,VALID,0.332532,-0.262038792,0.204727142
1999-09-02, 00:59:00,VALID,0,VALID,98.5087,VALID,0.0169808,VALID,20.6773,VALID,127,VALID,0.151394,-0.120908624,0.091111184
1999-09-02, 01:00:00,VALID,0,VALID,98.4692,VALID,0.0509425,VALID,20.6614,VALID,127,VALID,0.00205592,-0.001641931,0.001237284
1999-09-02, 01:01:00,VALID,0,VALID,98.5074,VALID,-0.0339617,VALID,20.6722,VALID,127,VALID,0,0,0
1999-09-02, 01:02:00,VALID,0,VALID,98.5303,VALID,-0.0849042,VALID,20.6525,VALID,127,VALID,0,0,0
1999-09-02, 01:03:00,VALID,0,VALID,98.5506,VALID,-0.0339617,VALID,20.656,VALID,127,VALID,0,0,0
1999-09-02, 01:04:00,VALID,0,VALID,98.5684,VALID,-0.0679233,VALID,20.6493,VALID,127,VALID,0,0,0
1999-09-02, 01:05:00,VALID,0,VALID,98.6117,VALID,-0.0339617,VALID,20.6528,VALID,127,VALID,0,0,0
1999-09-02, 01:06:00,VALID,0,VALID,98.6269,VALID,-0.0169808,VALID,20.6757,VALID,127,VALID,0,0,0
1999-09-02, 01:07:00,VALID,0,VALID,98.6002,VALID,0,VALID,20.6657,VALID,127,VALID,0,0,0
1999-09-02, 01:08:00,VALID,0,VALID,98.5443,VALID,-0.0849042,VALID,20.6627,VALID,127,VALID,0.315505,-0.251973497,0.189875649
1999-09-02, 01:09:00,VALID,0,VALID,98.5557,VALID,-0.0679233,VALID,20.6625,VALID,121,VALID,0.422086,-0.361798317,0.217390361
1999-09-02, 01:10:00,VALID,0,VALID,98.4845,VALID,-0.0679233,VALID,20.6266,VALID,119,VALID,0.395559,-0.345963697,0.191770809
1999-09-02, 01:11:00,VALID,0,VALID,98.5405,VALID,-0.0509425,VALID,20.6237,VALID,98,VALID,0.648849,-0.642534446,0.090302327
1999-09-02, 01:12:00,VALID,0,VALID,98.5201,VALID,-0.0509425,VALID,20.5975,VALID,100,VALID,0.698269,-0.687660725,0.121253139
1999-09-02, 01:13:00,VALID,0,VALID,98.4858,VALID,-0.0509425,VALID,20.5525,VALID,101,VALID,0.879207,-0.863053491,0.167760604
1999-09-02, 01:14:00,VALID,0,VALID,98.5608,VALID,-0.0509425,VALID,20.5463,VALID,116,VALID,0.662162,-0.595147263,0.290272715
1999-09-02, 01:15:00,VALID,0,VALID,98.6282,VALID,-0.0849042,VALID,20.5307,VALID,130,VALID,0.515831,-0.395149471,0.331569775
1999-09-02, 01:16:00,VALID,0,VALID,98.6727,VALID,-0.0679233,VALID,20.5073,VALID,149,VALID,0.313734,-0.161584955,0.268922526
1999-09-02, 01:17:00,VALID,0,VALID,98.6663,VALID,-0.0169808,VALID,20.4981,VALID,174,VALID,0.167652,-0.017524406,0.166733585
1999-09-02, 01:18:00,VALID,0,VALID,98.7108,VALID,-0.0339617,VALID,20.4717,VALID,199,VALID,0,0,0
1999-09-02, 01:19:00,VALID,0,VALID,98.7693,VALID,-0.0849042,VALID,20.4685,VALID,207,VALID,0,0,0
1999-09-02, 01:20:00,VALID,0,VALID,98.8164,VALID,-0.0339617,VALID,20.4558,VALID,207,VALID,0,0,0
1999-09-02, 01:21:00,VALID,0,VALID,98.8316,VALID,-0.0339617,VALID,20.4553,VALID,207,VALID,0,0,0
1999-09-02, 01:22:00,VALID,0,VALID,98.8711,VALID,-0.0679233,VALID,20.449,VALID,210,VALID,0,0,0
1999-09-02, 01:23:00,VALID,0,VALID,98.8952,VALID,-0.0679233,VALID,20.4393,VALID,219,VALID,0,0,0
1999-09-02, 01:24:00,VALID,0,VALID,98.8774,VALID,-0.0339617,VALID,20.4331,VALID,212,VALID,0.125633,0.066575347,0.106542826
1999-09-02, 01:25:00,VALID,0,VALID,98.866,VALID,-0.0849042,VALID,20.424,VALID,199,VALID,0.655839,0.213520293,0.620107957
1999-09-02, 01:26:00,VALID,0,VALID,98.8634,VALID,-0.0849042,VALID,20.3911,VALID,188,VALID,0.620888,0.086410908,0.614845561
1999-09-02, 01:27:00,VALID,0,VALID,98.9029,VALID,-0.101885,VALID,20.3819,VALID,188,VALID,0.613598,0.085396336,0.607626506
1999-09-02, 01:28:00,VALID,0,VALID,98.969,VALID,-0.0679233,VALID,20.3717,VALID,207,VALID,0.555489,0.252186729,0.494944323
1999-09-02, 01:29:00,VALID,0,VALID,98.9906,VALID,-0.101885,VALID,20.3687,VALID,203,VALID,0.510557,0.199490513,0.469970196
1999-09-02, 01:30:00,VALID,0,VALID,99.016,VALID,-0.101885,VALID,20.3588,VALID,222,VALID,0.607525,0.406513572,0.45147906
1999-09-02, 01:31:00,VALID,0,VALID,99.044,VALID,-0.0509425,VALID,20.3593,VALID,223,VALID,0.774054,0.527903559,0.566107258
1999-09-02, 01:32:00,VALID,0,VALID,99.0949,VALID,-0.0339617,VALID,20.372,VALID,235,VALID,0.752534,0.616439764,0.43163577
1999-09-02, 01:33:00,VALID,0,VALID,99.1076,VALID,-0.0509425,VALID,20.365,VALID,245,VALID,0.815705,0.739279793,0.344731829
1999-09-02, 01:34:00,VALID,0,VALID,99.1585,VALID,-0.0849042,VALID,20.3849,VALID,243,VALID,0.865709,0.771352367,0.393023662
1999-09-02, 01:35:00,VALID,0,VALID,99.1928,VALID,-0.0339617,VALID,20.3876,VALID,237,VALID,0.542763,0.455199353,0.295609917
1999-09-02, 01:36:00,VALID,0,VALID,99.203,VALID,0,VALID,20.3976,VALID,246,VALID,0.0723684,0.066111823,0.02943488
1999-09-02, 01:37:00,VALID,0,VALID,99.2208,VALID,-0.0339617,VALID,20.4075,VALID,247,VALID,0,0,0
1999-09-02, 01:38:00,VALID,0,VALID,99.2551,VALID,-0.0509425,VALID,20.4137,VALID,249,VALID,0.000200321,0.000187016,7.17886E-05
1999-09-02, 01:39:01,VALID,0,VALID,99.2869,VALID,-0.0339617,VALID,20.4525,VALID,273,VALID,0.0504645,0.05039534,-0.002641108
1999-09-02, 01:40:00,VALID,0,VALID,99.2665,VALID,-0.0679233,VALID,20.4428,VALID,273,VALID,0.252673,0.25232672,-0.013223883
1999-09-02, 01:41:00,VALID,0,VALID,99.2615,VALID,-0.0679233,VALID,20.4498,VALID,245,VALID,0.207237,0.187820507,0.087582141
1999-09-02, 01:42:00,VALID,0,VALID,99.2831,VALID,0,VALID,20.4553,VALID,144,VALID,0.530194,-0.311640214,0.428935956
1999-09-02, 01:43:00,VALID,0,VALID,99.2793,VALID,-0.0339617,VALID,20.4593,VALID,114,VALID,0.620994,-0.567306248,0.252581015
1999-09-02, 01:44:00,VALID,0,VALID,99.2589,VALID,-0.0169808,VALID,20.4525,VALID,122,VALID,0.725296,-0.615085892,0.384348323
1999-09-02, 01:45:00,VALID,0,VALID,99.2284,VALID,-0.0339617,VALID,20.4428,VALID,141,VALID,0.750206,-0.472119933,0.583019563
1999-09-02, 01:46:00,VALID,0,VALID,99.1279,VALID,-0.0509425,VALID,20.3973,VALID,161,VALID,0.915502,-0.298058297,0.865624147
1999-09-02, 01:47:00,VALID,0,VALID,99.0822,VALID,-0.0339617,VALID,20.3687,VALID,175,VALID,0.871199,-0.075929996,0.867883825
1999-09-02, 01:48:00,VALID,0,VALID,99.0669,VALID,-0.0339617,VALID,20.3332,VALID,186,VALID,0.939904,0.098246721,0.934755108
1999-09-02, 01:49:01,VALID,0,VALID,99.1038,VALID,-0.0509425,VALID,20.317,VALID,195,VALID,1.36296,0.352760006,1.316518264
1999-09-02, 01:50:00,VALID,0,VALID,99.1445,VALID,-0.0169808,VALID,20.3011,VALID,197,VALID,0.881168,0.25762859,0.842665149
1999-09-02, 01:51:00,VALID,0,VALID,99.1763,VALID,-0.0339617,VALID,20.3016,VALID,195,VALID,1.23787,0.320384331,1.195690603
1999-09-02, 01:52:00,VALID,0,VALID,99.1902,VALID,-0.0339617,VALID,20.2777,VALID,184,VALID,0.83826,0.058474062,0.836218041
1999-09-02, 01:53:00,VALID,0,VALID,99.2424,VALID,-0.0339617,VALID,20.2717,VALID,177,VALID,1.10216,-0.057682598,1.100649528
1999-09-02, 01:54:00,VALID,0,VALID,99.2729,VALID,-0.0679233,VALID,20.2717,VALID,179,VALID,1.66047,-0.028979197,1.660217102
1999-09-02, 01:55:00,VALID,0,VALID,99.2869,VALID,-0.101885,VALID,20.2588,VALID,184,VALID,1.86657,0.130205341,1.862023129
1999-09-02, 01:56:00,VALID,0,VALID,99.306,VALID,-0.0509425,VALID,20.2396,VALID,162,VALID,1.64433,-0.508125914,1.563850761
1999-09-02, 01:57:00,VALID,0,VALID,99.3416,VALID,0,VALID,20.2294,VALID,151,VALID,1.42758,-0.692104518,1.248589602
1999-09-02, 01:58:00,VALID,0,VALID,99.3683,VALID,-0.0169808,VALID,20.2299,VALID,148,VALID,1.55769,-0.825449939,1.320996039
1999-09-02, 01:59:00,VALID,0,VALID,99.3861,VALID,-0.0509425,VALID,20.217,VALID,127,VALID,1.4261,-1.138934101,0.858248405
1999-09-02, 02:00:00,VALID,0,VALID,99.4229,VALID,-0.0339617,VALID,20.2173,VALID,162,VALID,1.78721,-0.552278263,1.699737716
1999-09-02, 02:01:00,VALID,0,VALID,99.4255,VALID,-0.0679233,VALID,20.1971,VALID,181,VALID,0.726151,0.012673082,0.726040404
1999-09-02, 02:02:00,VALID,0,VALID,99.4624,VALID,-0.0169808,VALID,20.2043,VALID,194,VALID,0.0703125,0.017010133,0.068223918
1999-09-02, 02:03:00,VALID,0,VALID,99.4942,VALID,-0.0339617,VALID,20.2108,VALID,199,VALID,0.0891426,0.029021992,0.084285984
1999-09-02, 02:04:00,VALID,0,VALID,99.5196,VALID,-0.0679233,VALID,20.2068,VALID,162,VALID,0.223395,-0.069032851,0.21246127
1999-09-02, 02:05:00,VALID,0,VALID,99.531,VALID,-0.0339617,VALID,20.2294,VALID,199,VALID,0.276316,0.08995969,0.261261911
1999-09-02, 02:06:00,VALID,0,VALID,99.517,VALID,-0.0339617,VALID,20.2337,VALID,231,VALID,0.078125,0.060714528,0.049165656
1999-09-02, 02:07:00,VALID,0,VALID,99.5234,VALID,-0.0509425,VALID,20.2207,VALID,265,VALID,0.0540541,0.053848408,0.004711125
1999-09-02, 02:08:00,VALID,0,VALID,99.5285,VALID,-0.0339617,VALID,20.2267,VALID,263,VALID,0,0,0
1999-09-02, 02:09:00,VALID,0,VALID,99.5577,VALID,-0.0849042,VALID,20.2267,VALID,263,VALID,0,0,0
1999-09-02, 02:10:00,VALID,0,VALID,99.5743,VALID,-0.0509425,VALID,20.2434,VALID,263,VALID,0,0,0
1999-09-02, 02:11:00,VALID,0,VALID,99.5806,VALID,-0.0679233,VALID,20.2558,VALID,263,VALID,0,0,0
1999-09-02, 02:12:01,VALID,0,VALID,99.5476,VALID,-0.0509425,VALID,20.2399,VALID,264,VALID,0.0137247,0.013649515,0.001434622
1999-09-02, 02:13:00,VALID,0,VALID,99.5527,VALID,-0.0339617,VALID,20.2431,VALID,264,VALID,0.0941506,0.093634833,0.009841418
1999-09-02, 02:14:00,VALID,0,VALID,99.5298,VALID,-0.0509425,VALID,20.2038,VALID,270,VALID,0.531461,0.531461,9.76678E-17
1999-09-02, 02:15:00,VALID,0,VALID,99.5196,VALID,0,VALID,20.1877,VALID,280,VALID,0.470395,0.463248643,-0.081683235
1999-09-02, 02:16:00,VALID,0,VALID,99.531,VALID,0,VALID,20.171,VALID,291,VALID,0.781661,0.72974341,-0.28012225
1999-09-02, 02:17:00,VALID,0,VALID,99.5387,VALID,0.0509425,VALID,20.164,VALID,292,VALID,0.55891,0.518212328,-0.209371371
1999-09-02, 02:18:00,VALID,0,VALID,99.5641,VALID,0,VALID,20.1672,VALID,282,VALID,0.453726,0.443810998,-0.09433494
1999-09-02, 02:19:00,VALID,0,VALID,99.5844,VALID,0.0339617,VALID,20.1772,VALID,278,VALID,0.744299,0.737055533,-0.1035864
1999-09-02, 02:20:00,VALID,0,VALID,99.5895,VALID,0.0509425,VALID,20.1705,VALID,279,VALID,0.679893,0.671522389,-0.106358698
1999-09-02, 02:21:00,VALID,0,VALID,99.601,VALID,0.0509425,VALID,20.1737,VALID,279,VALID,0.696752,0.688173827,-0.108996026
1999-09-02, 02:22:00,VALID,0,VALID,99.6086,VALID,0,VALID,20.1707,VALID,261,VALID,0.738809,0.729713035,0.115575191
1999-09-02, 02:23:01,VALID,0,VALID,99.5933,VALID,0,VALID,20.171,VALID,266,VALID,0.630208,0.628672845,0.043961088
1999-09-02, 02:24:00,VALID,0,VALID,99.5844,VALID,0.0169808,VALID,20.1513,VALID,275,VALID,0.579814,0.577607633,-0.05053412
1999-09-02, 02:25:00,VALID,0,VALID,99.5768,VALID,0.0509425,VALID,20.1384,VALID,266,VALID,0.705181,0.703463215,0.04919094
1999-09-02, 02:26:00,VALID,0,VALID,99.5755,VALID,0.0339617,VALID,20.1155,VALID,292,VALID,0.713199,0.661266598,-0.267169048
1999-09-02, 02:27:00,VALID,0,VALID,99.5908,VALID,0.0849042,VALID,20.1058,VALID,251,VALID,0.606841,0.573779438,0.197568104
1999-09-02, 02:28:00,VALID,0,VALID,99.5781,VALID,0.0849042,VALID,20.0926,VALID,267,VALID,0.907051,0.905807918,0.047471381
1999-09-02, 02:29:00,VALID,0,VALID,99.5857,VALID,0.0169808,VALID,20.074,VALID,286,VALID,0.844806,0.812079648,-0.232860092
1999-09-02, 02:30:00,VALID,0,VALID,99.62,VALID,0.0509425,VALID,20.0735,VALID,267,VALID,0.485609,0.48494349,0.025414811
1999-09-02, 02:31:00,VALID,0,VALID,99.6328,VALID,0.0339617,VALID,20.0772,VALID,263,VALID,0.569285,0.565041636,0.069378389
1999-09-02, 02:32:00,VALID,0,VALID,99.6595,VALID,-0.0169808,VALID,20.0946,VALID,277,VALID,0.428421,0.425227615,-0.052211386
1999-09-02, 02:33:00,VALID,0,VALID,99.6646,VALID,-0.0169808,VALID,20.0944,VALID,299,VALID,0.378005,0.330610622,-0.183260461
1999-09-02, 02:34:01,VALID,0,VALID,99.6747,VALID,-0.0169808,VALID,20.0976,VALID,292,VALID,0.876267,0.812460615,-0.328255396
1999-09-02, 02:35:00,VALID,0,VALID,99.6696,VALID,-0.0509425,VALID,20.1033,VALID,291,VALID,0.693668,0.647594867,-0.248588379
1999-09-02, 02:36:00,VALID,0,VALID,99.6735,VALID,-0.0509425,VALID,20.1173,VALID,289,VALID,1.05284,0.995479777,-0.342771176
1999-09-02, 02:37:00,VALID,0,VALID,99.6658,VALID,-0.0849042,VALID,20.1043,VALID,254,VALID,0.532306,0.511685368,0.146723418
1999-09-02, 02:38:00,VALID,0,VALID,99.6633,VALID,-0.0679233,VALID,20.0976,VALID,233,VALID,0.671474,0.53626298,0.404103141
1999-09-02, 02:39:00,VALID,0,VALID,99.6442,VALID,-0.0679233,VALID,20.0879,VALID,231,VALID,1.07031,0.831787094,0.673567908
1999-09-02, 02:40:00,VALID,0,VALID,99.6048,VALID,-0.0509425,VALID,20.065,VALID,215,VALID,1.60547,0.920859761,1.315124033
1999-09-02, 02:41:00,VALID,0,VALID,99.6048,VALID,-0.0679233,VALID,20.0464,VALID,224,VALID,1.42989,0.993285057,1.028576787
1999-09-02, 02:42:00,VALID,0,VALID,99.5908,VALID,0,VALID,20.0362,VALID,225,VALID,1.41934,1.003624939,1.003624939
1999-09-02, 02:43:00,VALID,0,VALID,99.5794,VALID,-0.0679233,VALID,20.0265,VALID,227,VALID,1.54627,1.130870288,1.054553604
1999-09-02, 02:44:01,VALID,0,VALID,99.5832,VALID,-0.0509425,VALID,19.9971,VALID,222,VALID,0.918074,0.614311412,0.682261943
1999-09-02, 02:45:01,VALID,0,VALID,99.587,VALID,-0.0339617,VALID,20.0011,VALID,191,VALID,0.740748,0.141341382,0.727138373
1999-09-02, 02:46:00,VALID,0,VALID,99.5577,VALID,0,VALID,19.9845,VALID,175,VALID,0.823191,-0.071745823,0.82005851
1999-09-02, 02:47:00,VALID,0,VALID,99.5425,VALID,-0.0509425,VALID,19.9743,VALID,147,VALID,1.0549,-0.574539718,0.884713582
1999-09-02, 02:48:00,VALID,0,VALID,99.5259,VALID,-0.0679233,VALID,19.9653,VALID,148,VALID,0.780849,-0.413786928,0.662197508
1999-09-02, 02:49:00,VALID,0,VALID,99.512,VALID,-0.101885,VALID,19.9521,VALID,176,VALID,0.671875,-0.046867631,0.670238346
1999-09-02, 02:50:00,VALID,0,VALID,99.4992,VALID,-0.0679233,VALID,19.9559,VALID,186,VALID,0.877878,0.091763238,0.873068892
1999-09-02, 02:51:00,VALID,0,VALID,99.4967,VALID,-0.0509425,VALID,19.9357,VALID,186,VALID,1.1618,0.121441169,1.155435538
1999-09-02, 02:52:00,VALID,0,VALID,99.5183,VALID,-0.0509425,VALID,19.9394,VALID,211,VALID,1.02597,0.528413614,0.879427936
1999-09-02, 02:53:00,VALID,0,VALID,99.5209,VALID,-0.0679233,VALID,19.9327,VALID,210,VALID,1.13421,0.567105,0.982254673
1999-09-02, 02:54:00,VALID,0,VALID,99.5336,VALID,-0.0679233,VALID,19.9332,VALID,200,VALID,0.655828,0.224306387,0.616276732
1999-09-02, 02:55:00,VALID,0,VALID,99.5272,VALID,-0.0679233,VALID,19.9193,VALID,211,VALID,0.495271,0.255083422,0.424530106
1999-09-02, 02:56:01,VALID,0,VALID,99.5336,VALID,-0.0679233,VALID,19.9131,VALID,224,VALID,0.710321,0.493430428,0.510962166
1999-09-02, 02:57:00,VALID,0,VALID,99.5336,VALID,0.0169808,VALID,19.9121,VALID,213,VALID,0.705025,0.383984136,0.591283717
1999-09-02, 02:58:00,VALID,0,VALID,99.5323,VALID,0.0339617,VALID,19.8991,VALID,216,VALID,0.817909,0.480754848,0.661702281
1999-09-02, 02:59:00,VALID,0,VALID,99.545,VALID,0.0169808,VALID,19.8924,VALID,204,VALID,0.384291,0.156305231,0.351067297
1999-09-02, 03:00:00,VALID,0,VALID,99.5412,VALID,0.0339617,VALID,19.8927,VALID,256,VALID,0.318051,0.308603526,0.076943501
1999-09-02, 03:01:00,VALID,0,VALID,99.5399,VALID,0.0169808,VALID,19.8862,VALID,235,VALID,0.495066,0.405534326,0.283958192
1999-09-02, 03:02:00,VALID,0,VALID,99.5221,VALID,0.0339617,VALID,19.8827,VALID,207,VALID,0.451225,0.204851863,0.402044419
1999-09-02, 03:03:00,VALID,0,VALID,99.5183,VALID,0.0679233,VALID,19.8837,VALID,183,VALID,0.0797276,0.00417262,0.079618336
1999-09-02, 03:04:00,VALID,0,VALID,99.517,VALID,0.0169808,VALID,19.8703,VALID,160,VALID,0.11022,-0.03769746,0.103572921
1999-09-02, 03:05:00,VALID,0,VALID,99.517,VALID,0.101885,VALID,19.8638,VALID,116,VALID,0.155839,-0.140067165,0.068315321
1999-09-02, 03:06:00,VALID,0,VALID,99.5221,VALID,0.0339617,VALID,19.8541,VALID,109,VALID,0.693051,-0.655292594,0.225635335
1999-09-02, 03:07:01,VALID,0,VALID,99.498,VALID,0.0339617,VALID,19.8375,VALID,125,VALID,0.266892,-0.218625127,0.153082962
1999-09-02, 03:08:00,VALID,0,VALID,99.4738,VALID,0,VALID,19.8218,VALID,132,VALID,0.215545,-0.160181151,0.144227757
1999-09-02, 03:09:00,VALID,0,VALID,99.4776,VALID,0.0169808,VALID,19.8089,VALID,127,VALID,0.151394,-0.120908624,0.091111184
1999-09-02, 03:10:00,VALID,0,VALID,99.4776,VALID,0.0339617,VALID,19.7989,VALID,142,VALID,0,0,0
1999-09-02, 03:11:00,VALID,0,VALID,99.4636,VALID,0.0679233,VALID,19.7962,VALID,142,VALID,0,0,0
1999-09-02, 03:12:00,VALID,0,VALID,99.4598,VALID,0.0339617,VALID,19.7728,VALID,145,VALID,0,0,0
1999-09-02, 03:13:00,VALID,0,VALID,99.4395,VALID,0.0169808,VALID,19.7703,VALID,170,VALID,0,0,0
1999-09-02, 03:14:00,VALID,0,VALID,99.4102,VALID,0.0169808,VALID,19.7442,VALID,229,VALID,0.0232264,0.017529187,0.015237889
1999-09-02, 03:15:00,VALID,0,VALID,99.3975,VALID,0.0169808,VALID,19.7253,VALID,231,VALID,0.000205592,0.000159775,0.000129383
1999-09-02, 03:16:00,VALID,0,VALID,99.381,VALID,0,VALID,19.6895,VALID,231,VALID,0.3456,0.268581644,0.217493127
1999-09-02, 03:17:00,VALID,0,VALID,99.3377,VALID,0,VALID,19.6733,VALID,233,VALID,0.420186,0.33557546,0.252874247
1999-09-02, 03:18:00,VALID,0,VALID,99.3644,VALID,0.0169808,VALID,19.6537,VALID,244,VALID,0.501803,0.451017549,0.219975957
1999-09-02, 03:19:00,VALID,0,VALID,99.3988,VALID,0.0169808,VALID,19.6572,VALID,224,VALID,0.294764,0.20476028,0.212035477
1999-09-02, 03:20:00,VALID,0,VALID,99.4191,VALID,0.0339617,VALID,19.6574,VALID,207,VALID,0.292352,0.132725031,0.260487539
1999-09-02, 03:21:00,VALID,0,VALID,99.4242,VALID,0.0169808,VALID,19.6569,VALID,230,VALID,0.256785,0.196708722,0.165058216